Weather History for Khon Kaen, Thailand

Change the Weather History Date:

Monday, November 7, 2011

  Actual Average Record
Temperature  
Mean Temperature 82 °F -  
Max Temperature 89 °F 87 °F - ()
Min Temperature 74 °F 66 °F - ()
Cooling Degree Days 16    
Growing Degree Days 32 (Base 50)    
Moisture  
Dew Point 73 °F    
Average Humidity 72    
Maximum Humidity 94    
Minimum Humidity 38    
Precipitation  
Precipitation 0.00 in 0.02 in - ()
Sea Level Pressure  
Sea Level Pressure 29.78 in    
Wind  
Wind Speed 4 mph ()    
Max Wind Speed 7 mph    
Max Gust Speed -    
Visibility 6.2 miles    
Events      
T = Trace of Precipitation, MM = Missing Value Source: Averaged Metar Reports

Daily Weather History Graph

Daily Weather History Graph

Search for Another Location

Airport:

Trip Planner

Search our weather history database for the weather conditions in past years. The results will help you decide how hot, cold, wet, or windy it might be!

Date:

Astronomy

Nov. 07, 2011 Rise Set
Actual Time 6:08 AM ICT 5:36 PM ICT
Civil Twilight 5:45 AM ICT 5:58 PM ICT
Nautical Twilight 5:20 AM ICT 6:24 PM ICT
Astronomical Twilight 4:54 AM ICT 6:50 PM ICT
Moon 3:12 PM ICT (11/7) 3:05 AM ICT (11/7)
Length of Visible Light 12h 12m
Length of Day
11h 27m
Waxing Gibbous, 88% of the Moon is Illuminated
Nov 7
Waxing Gibbous
Nov 11
Full
Nov 18
Last Quarter
Nov 25
New
Dec 2
First Quarter

Hourly Weather History & Observations

Time (ICT) Temp. Heat Index Dew Point Humidity Pressure Visibility Wind Dir Wind Speed Gust Speed Precip Events Conditions
1:00 AM 79 °F - 70 °F 66% 29.79 in 6 mi NNW 1.2 mph - -   Partly Cloudy
4:00 AM 77.0 °F - 73.4 °F 89% 29.77 in 6.2 mi North 6.9 mph - N/A   Mostly Cloudy
6:00 AM 75.2 °F - 73.4 °F 94% 29.77 in 6.2 mi North 5.8 mph - N/A   Mostly Cloudy
7:00 AM 77 °F - 71 °F 75% 29.80 in 6 mi North 4.6 mph - -   Scattered Clouds
7:00 AM 75.2 °F - 73.4 °F 94% 29.80 in 6.2 mi North 4.6 mph - N/A   Mostly Cloudy
8:00 AM 77.0 °F - 73.4 °F 89% 29.83 in 6.2 mi North 4.6 mph - N/A   Mostly Cloudy
9:00 AM 82.4 °F 88.2 °F 73.4 °F 74% 29.86 in 6.2 mi North 6.9 mph - N/A   Mostly Cloudy
10:00 AM 86.0 °F 93.4 °F 73.4 °F 66% 29.86 in 6.2 mi NE 5.8 mph - N/A   Mostly Cloudy
11:00 AM 87.8 °F 95.6 °F 73.4 °F 62% 29.83 in 6.2 mi NNE 6.9 mph - N/A   Mostly Cloudy
12:00 PM 89.6 °F 96.2 °F 71.6 °F 55% 29.80 in 6.2 mi NE 5.8 mph - N/A   Mostly Cloudy
1:00 PM 89 °F - 67 °F 38% 29.74 in 6 mi NE 4.6 mph - -   Partly Cloudy
1:00 PM 87.8 °F 93.8 °F 71.6 °F 58% 29.77 in 6.2 mi NNE 3.5 mph - N/A   Mostly Cloudy
2:00 PM 87.8 °F 93.8 °F 71.6 °F 58% 29.74 in 6.2 mi ENE 4.6 mph - N/A   Mostly Cloudy
3:00 PM 87.8 °F 95.6 °F 73.4 °F 62% 29.71 in 6.2 mi Variable 2.3 mph - N/A   Mostly Cloudy
4:00 PM 87.8 °F 95.6 °F 73.4 °F 62% 29.71 in 6.2 mi NE 3.5 mph - N/A   Mostly Cloudy
6:00 PM - - - N/A% - 6.2 mi NE 5.8 mph - N/A   Mostly Cloudy
7:00 PM 83 °F - 72 °F 63% 29.73 in 6 mi Calm Calm - -   Scattered Clouds
7:00 PM 80.6 °F 86.2 °F 75.2 °F 84% 29.77 in 6.2 mi Calm Calm - N/A   Mostly Cloudy
8:00 PM 80.6 °F 87.1 °F 77.0 °F 89% 29.80 in 6.2 mi Calm Calm - N/A   Mostly Cloudy
9:00 PM 78.8 °F - 77.0 °F 94% 29.80 in 6.2 mi Calm Calm - N/A   Mostly Cloudy